TimeAKDT,TemperatureF,Dew PointF,Humidity,Sea Level PressureIn,VisibilityMPH,Wind Direction,Wind SpeedMPH,Gust SpeedMPH,PrecipitationIn,Events,Conditions,WindDirDegrees,DateUTC
12:53 AM,41.0,36.0,82,29.48,10.0,Calm,Calm,-,N/A,,Mostly Cloudy,0,2013-10-04 08:53:00
1:53 AM,39.9,34.0,79,29.49,10.0,Calm,Calm,-,N/A,,Scattered Clouds,0,2013-10-04 09:53:00
2:53 AM,39.0,34.0,82,29.50,10.0,Calm,Calm,-,N/A,,Scattered Clouds,0,2013-10-04 10:53:00
3:53 AM,37.9,33.1,83,29.51,10.0,Calm,Calm,-,N/A,,Scattered Clouds,0,2013-10-04 11:53:00
4:53 AM,36.0,32.0,86,29.52,10.0,Calm,Calm,-,N/A,,Scattered Clouds,0,2013-10-04 12:53:00
5:53 AM,37.9,33.1,83,29.54,10.0,Calm,Calm,-,N/A,,Scattered Clouds,0,2013-10-04 13:53:00
6:53 AM,37.0,32.0,82,29.55,10.0,Calm,Calm,-,N/A,,Overcast,0,2013-10-04 14:53:00
7:53 AM,36.0,32.0,86,29.57,10.0,East,3.5,-,N/A,,Scattered Clouds,90,2013-10-04 15:53:00
8:53 AM,37.9,33.1,83,29.58,10.0,Calm,Calm,-,N/A,,Mostly Cloudy,0,2013-10-04 16:53:00
9:53 AM,42.1,35.1,76,29.60,10.0,Calm,Calm,-,N/A,,Overcast,0,2013-10-04 17:53:00
10:53 AM,43.0,36.0,76,29.62,10.0,Calm,Calm,-,N/A,,Scattered Clouds,0,2013-10-04 18:53:00
11:53 AM,46.9,39.0,74,29.63,10.0,Calm,Calm,-,N/A,,Scattered Clouds,0,2013-10-04 19:53:00
12:53 PM,51.1,36.0,56,29.64,10.0,Calm,Calm,-,N/A,,Clear,0,2013-10-04 20:53:00
1:53 PM,54.0,36.0,51,29.65,10.0,NNW,3.5,-,N/A,,Clear,340,2013-10-04 21:53:00
2:53 PM,55.0,36.0,49,29.65,10.0,West,4.6,-,N/A,,Partly Cloudy,270,2013-10-04 22:53:00
3:53 PM,53.1,34.0,48,29.66,10.0,NW,5.8,-,N/A,,Clear,310,2013-10-04 23:53:00
4:53 PM,53.1,32.0,45,29.67,10.0,Calm,Calm,-,N/A,,Partly Cloudy,0,2013-10-05 00:53:00
5:53 PM,52.0,34.0,50,29.68,10.0,Calm,Calm,-,N/A,,Clear,0,2013-10-05 01:53:00
6:53 PM,50.0,36.0,59,29.69,10.0,NW,4.6,-,N/A,,Clear,310,2013-10-05 02:53:00
7:53 PM,46.9,33.1,59,29.70,10.0,Calm,Calm,-,N/A,,Scattered Clouds,0,2013-10-05 03:53:00
8:53 PM,45.0,34.0,65,29.71,10.0,Calm,Calm,-,N/A,,Overcast,0,2013-10-05 04:53:00
9:53 PM,44.1,34.0,68,29.73,10.0,Calm,Calm,-,N/A,,Mostly Cloudy,0,2013-10-05 05:53:00
10:53 PM,42.1,32.0,67,29.73,10.0,Calm,Calm,-,N/A,,Scattered Clouds,0,2013-10-05 06:53:00
11:53 PM,41.0,32.0,70,29.75,10.0,Calm,Calm,-,N/A,,Scattered Clouds,0,2013-10-05 07:53:00